COSMOS 2292

Satellite information

Favourite Embed

Satellite Type and Status

PAYLOADIN ORBIT

Key statistics

Satellite COSMOS 2292 at a glance.

Uptime

11184

Days in orbit

Revolutions

≈ 13.7

Per day

Orbit

LEO

Low Earth Orbit

Inclination

83.0

Latest

Satellite identification and parameters

Extended collection of information and parameters for COSMOS 2292.

Object identification

Identified? True

Debris? False

Object name: COSMOS 2292

International designator: 1994-061A

Object number (NORAD): 23278

Object ID (CCSDS): 23278

Country: COMMONWEALTH OF INDEPENDENT STATES (CIS)

Current information (Y/N): Y

RCS size: LARGE

Orbital parameters

Period: 105.264 minutes

Inclination: 82.9762 deg

SMA: 7384.915 km

Apoapsis: 1620.197 km

Periapsis: 393.363 km

RAAN: 210.6441 deg

Eccentricy: 0.0830635

Argument of periapsis: 201.8358 deg

Mean anomaly: 154.5387 deg

Mean motion: 13.67995009 rev/day

Mean motion (dot): 0.00004439 rev/day2

B* drag term: 0.00037064 1/REarth

Two-line elements (TLE)

Creation date: May 11, 2025, 2:40 a.m.

Reference frame: TEME

Reference center: EARTH

Epoch: May 10, 2025, 10:11 p.m. UTC

TLE line 0: 0 COSMOS 2292

TLE line 1: 1 23278U 94061A 25130.92475380 .00004439 00000-0 37064-3 0 9994

TLE line 2: 2 23278 82.9762 210.6441 0830635 201.8358 154.5387 13.67995009502940

Live tracking on map

Real-time ground track for satellite COSMOS 2292.

In-orbit conjunctions

There are no conjunctions computed for COSMOS 2292, at the moment. Check back to stay up to date, as we update our databases every day.

Go to all conjunctions

Associated space launch

Radar calibration satellite

COSMOS 2292 was lifted into orbit during the mission ‘Kosmos-3M | Taifun-1 24’, on board a Kosmos-3M space rocket.

The launch took place on Sept. 27, 1994, 2 p.m. from 132/1 (132L).

For more information about the launch, click the button.

Launch to space Kosmos-3M | Taifun-1 24
Kosmos-3M | Taifun-1 24

Agency: N/A

Status: Launch Successful

Launch date: Sept. 27, 1994, 2 p.m. UTC

Rocket: Kosmos-3M

Launch pad: 132/1 (132L)

Location: Plesetsk Cosmodrome, Russian Federation

...

Latest news about this satellite

There are no fresh news available about this satellite. Check back as we update our databases every day.


Newsletter sign-up

Weekly statistics, charts and insights to help you stay on top of the space industry.